This is the latest recevied weather packets stored in our database for station/object EA3EH-1. If no packets are shown the sender has not sent any weather packets the latest 10 day(s).
| Time | Temp. | Humidity | Pressure | Rain* | Wind** | Luminosity | Snow |
|---|---|---|---|---|---|---|---|
| 1777741605 | 20° C | 23% | 1016 hPa | 0 mm | - | - | - |
| 1777740404 | 20° C | 23% | 1016 hPa | 0 mm | - | - | - |
| 1777740104 | 20° C | 23% | 1016 hPa | 0 mm | - | - | - |
| 1777739506 | 21.11° C | 22% | 1016 hPa | 0 mm | - | - | - |
| 1777737404 | 22.22° C | 16% | 1016 hPa | 0 mm | - | - | - |
| 1777737108 | 22.78° C | 16% | 1016 hPa | 0 mm | - | - | - |
| 1777736806 | 22.22° C | 19% | 1016 hPa | 0 mm | - | - | - |
| 1777736505 | 21.11° C | 21% | 1016 hPa | 0 mm | - | - | - |
| 1777735905 | 20° C | 22% | 1016 hPa | 0 mm | - | - | - |
| 1777735605 | 20° C | 22% | 1016 hPa | 0 mm | - | - | - |
| 1777735305 | 20° C | 22% | 1016 hPa | 0 mm | - | - | - |
| 1777733508 | 20° C | 23% | 1017 hPa | 0 mm | - | - | - |
| 1777732906 | 20° C | 23% | 1017 hPa | 0 mm | - | - | - |
| 1777732310 | 20° C | 19% | 1017 hPa | 0 mm | - | - | - |
| 1777731105 | 22.22° C | 16% | 1017 hPa | 0 mm | - | - | - |
| 1777730805 | 23.33° C | 13% | 1017 hPa | 0 mm | - | - | - |
| 1777730205 | 23.33° C | 15% | 1017 hPa | 0 mm | - | - | - |
| 1777729905 | 23.33° C | 15% | 1017 hPa | 0 mm | - | - | - |
| 1777728105 | 22.22° C | 21% | 1018 hPa | 0 mm | - | - | - |
| 1777727805 | 21.67° C | 22% | 1018 hPa | 0 mm | - | - | - |
| 1777727206 | 22.22° C | 22% | 1018 hPa | 0 mm | - | - | - |
| 1777726905 | 22.22° C | 23% | 1018 hPa | 0 mm | - | - | - |
| 1777726604 | 21.67° C | 23% | 1018 hPa | 0 mm | - | - | - |
| 1777725705 | 21.67° C | 23% | 1018 hPa | 0 mm | - | - | - |
| 1777725105 | 21.11° C | 28% | 1018 hPa | 0 mm | - | - | - |
* Rain latest hour (hover to see other rain measurements)
** Current wind speed in m/s (hover to see current wind gust speed)